Regional Weather Roundup
Issued by NWS

Home | Current Version | Previous Version | Text Only | Print | Product List | Glossary On
Versions: 1 2 3 4 5 6 7 8 9 10 11 12 13 14 15 16 17 18 19 20 21 22 23 24 25 26 27 28 29 30 31 32 33 34 35 36 37 38 39 40 41 42 43 44 45 46 47 48 49 50
000
ASUS43 KBIS 201520
RWRND

NORTH DAKOTA REGIONAL WEATHER ROUNDUP
NATIONAL WEATHER SERVICE BISMARCK ND
1000 AM CDT SAT SEP 20 2014

NOTE: "FAIR" INDICATES FEW OR NO CLOUDS BELOW 12,000 FEET WITH NO
SIGNIFICANT WEATHER AND/OR OBSTRUCTIONS TO VISIBILITY.


NDZ001>003-009>011-017-201600-
NORTHWEST NORTH DAKOTA

CITY           SKY/WX    TMP DP  RH WIND       PRES   REMARKS
WILLISTON      MOSUNNY   60  50  69 W8        29.97R
MINOT          LGT RAIN  55  51  86 W13       29.86F
MINOT AFB      DRIZZLE   54  54  99 NW13      29.85S
$$

NDZ018>021-031>035-040>046-201600-
SOUTHWEST NORTH DAKOTA

CITY           SKY/WX    TMP DP  RH WIND       PRES   REMARKS
BISMARCK       PTSUNNY   59  52  77 W6        29.87F
DICKINSON      SUNNY     61  47  59 NW29G36   29.98R
GARRISON         N/A     58  54  86 N22G33    29.89R
HETTINGER ARPT SUNNY     64  47  53 W21G29    29.99R
$$

NDZ004>008-012>016-024-026-027-054-201600-
NORTHEAST NORTH DAKOTA

CITY           SKY/WX    TMP DP  RH WIND       PRES   REMARKS
GRAND FORKS    PTSUNNY   60  52  74 SW5       29.79F
GRND FRKS AFB  MOSUNNY   59  57  94 SW7       29.79F
DEVILS LAKE    PTSUNNY   61  52  72 W8        29.77F
$$

NDZ022-023-025-028>030-036>039-047>053-201600-
SOUTHEAST NORTH DAKOTA

CITY           SKY/WX    TMP DP  RH WIND       PRES   REMARKS
FARGO          SUNNY     60  54  80 SW5       29.83S
JAMESTOWN      SUNNY     62  56  80 W7        29.83S
$$




USA.gov is the U.S. government's official web portal to all federal, state and local government web resources and services.